QPF
0.00 0.00 0.00 0.00 0.00 0.00 0.00 0.00 0.00 0.00 0.00 0.00 0.00 0.00 0.00 0.00 0.00 0.00 0.00 0.00 0.00 0.00 0.00 0.00 0.00 0.00 0.00 0.00 0.00 0.00 0.00 0.00 0.00 0.00 0.00 0.00 0.00 0.00 0.00 0.00 0.00 0.00 0.00 0.00 0.00
0.00 0.00 0.00 0.00 0.00 0.00 0.00 0.00 0.00 0.00 0.00 0.00 0.00 0.00 0.00 0.00 0.00 0.00 0.00 0.00 0.00 0.00 0.00 0.00 0.00 0.00 0.00 0.00 0.00 0.00 0.00 0.00 0.00 0.00 0.00 0.00 0.00 0.00 0.00 0.00 0.00 0.00 0.00 0.00 0.00
0.00 0.00 0.00 0.00 0.00 0.00 0.00 0.00 0.00 0.00 0.00 0.00 0.00 0.00 0.00 0.00 0.00 0.00 0.00 0.00 0.00 0.00 0.00 0.00 0.00 0.00 0.00 0.00 0.00 0.00 0.00 0.00 0.00 0.00 0.00 0.00 0.00 0.00 0.00 0.00 0.00 0.00 0.00 0.00 0.00
0.00 0.00 0.00 0.00 0.00 0.00 0.00 0.00 0.00 0.00 0.00 0.00 0.00 0.00 0.00 0.00 0.00 0.00 0.00 0.00 0.00 0.00 0.00 0.00 0.00 0.00 0.00 0.00 0.00 0.00 0.00 0.00 0.00 0.00 0.00 0.00 0.00 0.00 0.00 0.00 0.00 0.00 0.00 0.00 0.00
0.00 0.00 0.00 0.00 0.00 0.00 0.00 0.00 0.00 0.00 0.00 0.00 0.00 0.00 0.00 0.00 0.00 0.00 0.00 0.00 0.00 0.00 0.00 0.00 0.00 0.00 0.00 0.00 0.00 0.00 0.00 0.00 0.00 0.00 0.00 0.00 0.00 0.00 0.00 0.00 0.00 0.00 0.00 0.00 0.00
0.00 0.00 0.00 0.00 0.00 0.00 0.00 0.00 0.00 0.00 0.00 0.00 0.00 0.00 0.00 0.00 0.00 0.00 0.00 0.00 0.00 0.00 0.00 0.00 0.00 0.00 0.00 0.00 0.00 0.00 0.00 0.00 0.00 0.00 0.00 0.00 0.00 0.00 0.00 0.00 0.00 0.00 0.00 0.00 0.00
0.00 0.00 0.00 0.00 0.00 0.00 0.00 0.00 0.00 0.00 0.00 0.00 0.00 0.00 0.00 0.00 0.00 0.00 0.00 0.00 0.00 0.00 0.00 0.00 0.00 0.00 0.00 0.00 0.00 0.00 0.00 0.00 0.00 0.00 0.00 0.00 0.00 0.00 0.00 0.00 0.00 0.00 0.00 0.00 0.00
0.00 0.00 0.00 0.00 0.00 0.00 0.00 0.00 0.00 0.00 0.00 0.00 0.00 0.00 0.00 0.00 0.00 0.00 0.00 0.00 0.00 0.00 0.00 0.00 0.00 0.00 0.00 0.00 0.00 0.00 0.00 0.00 0.00 0.00 0.00 0.00 0.00 0.00 0.00 0.00 0.00 0.00 0.00 0.00 0.00
0.00 0.00 0.00 0.00 0.00 0.00 0.00 0.00 0.00 0.00 0.00 0.00 0.00 0.00 0.00 0.00 0.00 0.00 0.00 0.00 0.00 0.00 0.00 0.00 0.00 0.00 0.00 0.00 0.00 0.00 0.00 0.00 0.00 0.00 0.00 0.00 0.00 0.00 0.00 0.00 0.00 0.00 0.00 0.00 0.00
0.00 0.00 0.00 0.00 0.00 0.00 0.00 0.00 0.00 0.00 0.00 0.00 0.00 0.00 0.00 0.00 0.00 0.00 0.00 0.00 0.00 0.00 0.00 0.00 0.00 0.00 0.00 0.00 0.00 0.00 0.00 0.00 0.00 0.00 0.00 0.00 0.00 0.00 0.00 0.00 0.00 0.00 0.00 0.00 0.00
0.00 0.00 0.00 0.00 0.00 0.00 0.00 0.00 0.00 0.00 0.00 0.00 0.00 0.00 0.00 0.00 0.00 0.00 0.00 0.00 0.00 0.00 0.00 0.00 0.00 0.00 0.00 0.00 0.00 0.00 0.00 0.00 0.00 0.00 0.00 0.00 0.00 0.00 0.00 0.00 0.00 0.00 0.00 0.00 0.00
0.00 0.00 0.00 0.00 0.00 0.00 0.00 0.00 0.00 0.00 0.00 0.00 0.00 0.00 0.00 0.00 0.00 0.00 0.00 0.00 0.00 0.00 0.00 0.00 0.00 0.00 0.00 0.00 0.00 0.00 0.00 0.00 0.00 0.00 0.00 0.00 0.00 0.00 0.00 0.00 0.00 0.00 0.00 0.00 0.00
0.00 0.00 0.00 0.00 0.00 0.00 0.00 0.00 0.00 0.00 0.00 0.00 0.00 0.00 0.00 0.00 0.00 0.00 0.00 0.00 0.00 0.00 0.00 0.00 0.00 0.00 0.00 0.00 0.00 0.00 0.00 0.00 0.00 0.00 0.00 0.00 0.00 0.00 0.00 0.00 0.00 0.00 0.00 0.00 0.00
0.00 0.00 0.00 0.00 0.00 0.00 0.00 0.00 0.00 0.00 0.00 0.00 0.00 0.00 0.00 0.00 0.00 0.00 0.00 0.00 0.00 0.00 0.00 0.00 0.00 0.00 0.00 0.00 0.00 0.00 0.00 0.00 0.00 0.00 0.00 0.00 0.00 0.00 0.00 0.00 0.00 0.00 0.00 0.00 0.00
0.00 0.00 0.00 0.00 0.00 0.00 0.00 0.00 0.00 0.01 0.00 0.00 0.00 0.00 0.00 0.00 0.00 0.00 0.00 0.00 0.00 0.00 0.00 0.00 0.00 0.00 0.00 0.00 0.00 0.00 0.00 0.00 0.00 0.00 0.00 0.00 0.00 0.00 0.00 0.00 0.00 0.00 0.00 0.00 0.00
0.00 0.00 0.00 0.00 0.00 0.00 0.00 0.00 0.01 0.02 0.00 0.00 0.00 0.00 0.00 0.00 0.00 0.00 0.00 0.00 0.00 0.00 0.00 0.00 0.00 0.00 0.00 0.00 0.00 0.00 0.00 0.00 0.00 0.00 0.00 0.00 0.00 0.00 0.00 0.00 0.00 0.00 0.00 0.00 0.00
0.00 0.00 0.00 0.00 0.00 0.00 0.00 0.01 0.03 0.01 0.00 0.00 0.00 0.00 0.00 0.00 0.00 0.00 0.00 0.00 0.00 0.00 0.00 0.00 0.00 0.00 0.00 0.00 0.00 0.00 0.00 0.00 0.00 0.00 0.00 0.00 0.00 0.00 0.00 0.00 0.00 0.00 0.00 0.00 0.00
0.00 0.00 0.00 0.00 0.00 0.00 0.01 0.03 0.01 0.00 0.00 0.00 0.00 0.00 0.00 0.00 0.00 0.00 0.00 0.01 0.00 0.00 0.00 0.00 0.00 0.00 0.00 0.00 0.00 0.00 0.00 0.00 0.00 0.00 0.00 0.00 0.00 0.00 0.00 0.00 0.00 0.00 0.00 0.00 0.00
0.00 0.00 0.00 0.01 0.00 0.01 0.03 0.03 0.01 0.00 0.01 0.01 0.00 0.00 0.00 0.00 0.00 0.00 0.00 0.01 0.03 0.00 0.00 0.00 0.00 0.00 0.00 0.00 0.00 0.00 0.00 0.00 0.00 0.00 0.00 0.00 0.00 0.00 0.00 0.00 0.00 0.00 0.00 0.00 0.00
0.00 0.00 0.00 0.01 0.01 0.02 0.02 0.04 0.01 0.01 0.00 0.01 0.03 0.01 0.01 0.00 0.00 0.02 0.00 0.01 0.01 0.00 0.00 0.00 0.00 0.00 0.00 0.00 0.00 0.00 0.00 0.00 0.00 0.00 0.00 0.00 0.00 0.00 0.00 0.00 0.00 0.00 0.00 0.00 0.00
0.00 0.00 0.00 0.00 0.00 0.00 0.02 0.02 0.01 0.01 0.01 0.02 0.02 0.03 0.03 0.01 0.02 0.03 0.01 0.00 0.00 0.00 0.00 0.00 0.00 0.00 0.00 0.00 0.00 0.00 0.00 0.00 0.00 0.00 0.00 0.00 0.00 0.00 0.00 0.00 0.00 0.00 0.00 0.00 0.00
0.00 0.00 0.00 0.00 0.02 0.00 0.00 0.00 0.00 0.01 0.03 0.02 0.02 0.05 0.05 0.03 0.01 0.01 0.00 0.00 0.00 0.00 0.00 0.00 0.00 0.00 0.00 0.00 0.00 0.00 0.00 0.00 0.00 0.00 0.00 0.00 0.00 0.00 0.00 0.00 0.00 0.00 0.00 0.00 0.00
0.00 0.00 0.00 0.00 0.01 0.00 0.00 0.00 0.00 0.01 0.03 0.05 0.04 0.03 0.02 0.02 0.04 0.03 0.01 0.00 0.00 0.00 0.00 0.00 0.00 0.00 0.00 0.00 0.00 0.00 0.00 0.00 0.00 0.00 0.00 0.00 0.00 0.00 0.00 0.00 0.00 0.00 0.00 0.00 0.00
0.00 0.00 0.00 0.01 0.01 0.00 0.00 0.00 0.00 0.00 0.02 0.03 0.03 0.06 0.03 0.03 0.06 0.04 0.01 0.00 0.01 0.01 0.01 0.01 0.00 0.00 0.00 0.00 0.00 0.00 0.00 0.00 0.00 0.00 0.00 0.00 0.00 0.00 0.00 0.00 0.00 0.00 0.00 0.00 0.00
0.00 0.00 0.00 0.01 0.01 0.01 0.01 0.00 0.00 0.01 0.01 0.01 0.05 0.04 0.01 0.01 0.01 0.01 0.00 0.01 0.02 0.00 0.00 0.00 0.00 0.00 0.00 0.00 0.00 0.00 0.00 0.00 0.00 0.00 0.00 0.00 0.00 0.00 0.00 0.00 0.00 0.00 0.00 0.00 0.00
0.00 0.00 0.01 0.01 0.00 0.00 0.01 0.00 0.01 0.02 0.02 0.01 0.02 0.02 0.01 0.01 0.00 0.00 0.01 0.02 0.01 0.00 0.01 0.00 0.00 0.00 0.00 0.00 0.00 0.00 0.00 0.00 0.00 0.00 0.00 0.00 0.00 0.00 0.00 0.00 0.00 0.00 0.00 0.00 0.00
0.00 0.01 0.02 0.01 0.00 0.01 0.01 0.01 0.01 0.01 0.01 0.02 0.02 0.01 0.00 0.01 0.00 0.00 0.00 0.00 0.00 0.00 0.01 0.00 0.00 0.00 0.00 0.00 0.00 0.00 0.00 0.00 0.00 0.00 0.00 0.00 0.00 0.00 0.00 0.00 0.00 0.00 0.00 0.00 0.00
MSLP
1022.12 1021.67 1021.36 1021.16 1020.91 1020.80 1020.45 1020.25 1019.81 1019.70 1019.20 1018.79 1018.39 1018.07 1017.67 1017.01 1016.17 1014.65 1013.27 1012.22 1012.14 1012.41 1012.62 1012.10 1011.89 1011.75 1011.48 1010.64 1009.76 1009.21 1007.45 1005.62 1004.67 1004.13 1004.02 1003.98 1004.29 1004.52 1004.88 1004.55 1004.28 1004.32 1004.22 1004.11 1004.55
1022.38 1022.10 1021.77 1021.44 1021.15 1020.66 1020.40 1020.06 1019.89 1019.75 1019.31 1018.88 1018.59 1018.37 1017.94 1017.17 1015.78 1013.33 1011.84 1011.96 1012.12 1012.16 1011.94 1011.37 1010.89 1010.62 1010.40 1009.51 1009.05 1008.42 1006.19 1004.89 1004.38 1004.01 1003.79 1003.88 1004.04 1004.21 1004.64 1004.23 1003.80 1003.61 1003.31 1003.54 1003.91
1022.45 1022.00 1021.54 1021.23 1020.90 1020.61 1020.32 1019.97 1019.65 1019.52 1019.23 1018.93 1018.56 1018.36 1017.82 1017.07 1014.54 1010.61 1011.43 1011.46 1011.45 1011.46 1010.91 1010.58 1009.94 1009.86 1009.22 1008.69 1007.91 1007.08 1004.94 1004.33 1003.90 1003.98 1003.95 1004.17 1004.33 1004.12 1003.81 1003.79 1003.66 1003.30 1003.25 1003.24 1003.26
1022.55 1022.14 1021.76 1021.39 1020.94 1020.54 1020.24 1019.93 1019.78 1019.32 1018.92 1018.90 1018.74 1018.36 1017.74 1016.40 1012.68 1010.61 1011.51 1011.54 1010.71 1010.24 1010.49 1009.80 1009.60 1008.71 1008.32 1007.41 1007.39 1006.33 1004.88 1004.40 1003.81 1003.53 1003.80 1004.17 1004.25 1003.71 1003.46 1003.65 1003.73 1003.43 1003.25 1003.07 1002.80
1022.47 1022.05 1021.72 1021.39 1021.00 1020.58 1020.15 1019.74 1019.30 1019.06 1018.94 1018.70 1018.60 1018.39 1017.32 1015.08 1011.72 1010.46 1011.29 1011.09 1010.34 1010.28 1009.49 1008.64 1008.29 1007.82 1006.90 1006.74 1006.71 1004.82 1004.84 1004.21 1003.95 1004.25 1003.95 1004.15 1003.78 1003.50 1002.81 1003.42 1003.44 1003.28 1002.76 1002.44 1002.21
1022.37 1022.02 1021.65 1021.19 1020.74 1020.32 1019.87 1019.45 1019.06 1018.73 1018.46 1018.41 1018.28 1018.21 1016.86 1013.95 1011.62 1011.22 1011.44 1011.13 1010.55 1009.84 1009.13 1008.79 1007.87 1007.43 1006.45 1005.72 1005.20 1004.74 1004.32 1004.29 1004.23 1003.86 1003.86 1003.82 1003.26 1003.28 1002.38 1003.05 1002.61 1002.36 1002.02 1001.73 1001.54
1022.27 1021.89 1021.44 1020.94 1020.44 1019.93 1019.49 1019.11 1018.74 1018.40 1018.02 1017.73 1017.55 1017.49 1015.92 1013.08 1011.59 1011.39 1011.35 1011.07 1010.92 1010.37 1009.03 1008.46 1007.88 1007.58 1006.38 1005.87 1005.12 1004.60 1004.33 1003.97 1003.96 1003.76 1003.35 1003.80 1001.80 1001.93 1001.82 1002.32 1001.82 1001.31 1001.22 1001.11 1000.97
1022.06 1021.63 1021.16 1020.61 1020.07 1019.53 1019.02 1018.51 1017.99 1017.61 1017.14 1016.90 1017.06 1016.84 1013.71 1011.70 1011.36 1011.24 1010.96 1010.46 1010.51 1010.77 1010.11 1009.04 1008.47 1007.60 1006.58 1006.02 1005.10 1004.44 1003.90 1002.48 1002.95 1003.21 1003.52 1003.70 999.18 1000.81 1000.70 1000.85 1000.34 1000.52 1000.43 1000.40 1000.43
1021.77 1021.32 1020.86 1020.35 1019.83 1019.23 1018.62 1017.88 1017.17 1016.71 1016.24 1016.26 1016.36 1015.84 1012.05 1011.55 1011.53 1010.91 1010.84 1010.27 1009.67 1009.42 1009.60 1009.39 1008.64 1007.17 1006.78 1005.95 1005.00 1003.46 1001.65 1001.65 1001.74 1001.85 1001.88 1002.09 999.33 1000.53 1000.44 1000.14 1000.20 1000.13 999.99 999.72 999.67
1021.44 1020.93 1020.42 1019.90 1019.40 1018.84 1018.14 1016.90 1015.97 1016.17 1015.58 1015.18 1014.94 1014.74 1011.65 1010.50 1010.33 1010.47 1010.08 1009.84 1009.43 1008.59 1008.55 1008.28 1007.48 1006.26 1005.43 1003.88 1001.03 1001.99 1001.66 1001.60 1000.55 1000.49 1000.78 1001.11 999.77 1000.18 999.94 999.61 999.76 999.65 999.35 999.11 998.79
1021.08 1020.59 1020.10 1019.60 1019.16 1018.68 1017.60 1015.39 1014.96 1014.34 1014.12 1012.99 1011.99 1011.45 1010.22 1009.99 1009.79 1009.72 1009.54 1009.13 1008.81 1008.22 1006.25 1006.26 1005.85 1002.87 1000.27 1002.36 1002.32 1002.28 1001.30 1000.39 1000.14 1000.40 1000.64 1000.53 999.84 999.27 999.18 999.02 999.36 998.97 998.51 998.16 997.84
1020.90 1020.37 1019.84 1019.29 1018.74 1018.26 1017.38 1015.92 1016.10 1016.41 1014.11 1012.10 1011.18 1010.96 1010.33 1010.21 1009.61 1009.33 1009.53 1008.85 1007.62 1006.39 1006.33 1005.10 1002.48 998.41 1002.15 1002.19 1002.12 1001.98 1001.20 1000.24 1000.44 1000.74 1000.87 1000.42 999.82 999.47 999.11 998.68 998.51 998.00 997.55 997.08 996.94
1020.77 1020.25 1019.69 1019.14 1018.49 1017.86 1016.96 1016.55 1016.36 1016.16 1014.27 1010.51 1009.64 1009.38 1009.22 1009.17 1008.52 1007.81 1008.04 1007.48 1006.64 1005.67 1004.05 1001.95 996.94 1001.84 1001.06 1001.03 1001.02 1000.87 1000.76 1000.90 1001.11 1001.05 1000.94 1000.97 999.91 999.28 998.43 997.49 996.94 996.62 996.58 996.43 996.32
1020.57 1020.03 1019.48 1018.95 1018.07 1017.15 1016.27 1016.64 1016.39 1016.27 1013.96 1009.23 1008.82 1008.52 1008.40 1008.63 1007.89 1007.22 1007.28 1007.00 1005.84 1004.59 1003.73 1001.98 1000.68 999.83 1000.07 999.39 1000.08 999.60 1001.03 1001.60 1001.46 1001.54 1000.37 1000.76 998.30 997.67 997.16 996.31 996.08 995.90 995.62 995.22 995.23
1020.28 1019.75 1019.29 1018.99 1018.08 1016.96 1016.43 1016.51 1016.31 1016.05 1012.16 1008.74 1008.12 1008.06 1007.56 1007.60 1007.03 1005.77 1006.26 1006.55 1005.12 1004.03 1003.17 999.46 999.71 999.11 998.24 997.44 999.60 999.18 1000.98 1001.17 1001.27 1001.16 1001.05 1000.25 999.10 996.76 996.32 995.15 994.59 994.65 994.27 994.18 994.32
1019.98 1019.41 1019.00 1017.46 1017.95 1017.00 1016.66 1016.59 1016.13 1014.94 1010.25 1008.29 1007.73 1007.73 1007.31 1006.62 1006.20 1005.74 1005.73 1006.20 1005.52 1004.78 1002.72 1000.60 999.36 998.69 997.07 998.64 998.96 1000.04 1000.68 1000.81 1000.81 1000.59 999.53 998.98 998.34 995.93 994.60 993.80 993.60 993.24 993.25 993.26 993.91
1019.45 1018.85 1018.54 1017.55 1017.00 1016.97 1016.75 1015.97 1014.94 1012.36 1009.68 1008.60 1008.49 1008.04 1007.46 1006.47 1005.88 1005.93 1005.51 1004.99 1004.77 1004.00 1002.19 1000.59 999.08 998.37 997.41 997.63 998.41 999.21 999.79 999.36 999.47 998.88 997.90 997.73 996.83 994.79 993.85 993.68 993.25 992.83 993.06 993.51 994.76
1019.03 1018.39 1018.03 1017.19 1017.41 1017.29 1016.90 1015.92 1013.60 1011.03 1010.26 1009.56 1009.14 1008.58 1007.41 1006.38 1005.88 1006.66 1005.69 1004.75 1003.66 1003.49 1001.48 1000.39 998.74 997.45 996.32 995.73 996.02 996.90 997.59 996.68 996.70 996.81 996.36 996.15 995.37 993.95 993.74 992.99 992.40 992.35 992.75 993.40 994.85
1018.58 1017.32 1016.77 1017.25 1017.34 1017.45 1017.05 1015.13 1012.33 1011.48 1011.26 1010.65 1009.79 1008.12 1006.71 1006.46 1006.70 1006.76 1006.14 1006.56 1005.38 1003.44 1001.98 999.98 997.65 996.52 995.98 995.94 995.59 995.98 995.69 996.16 995.88 996.30 996.24 994.78 994.45 993.87 993.04 992.08 992.03 991.97 992.54 993.47 994.92
1018.12 1017.19 1016.57 1017.24 1017.60 1017.87 1017.37 1014.96 1013.15 1012.47 1011.79 1010.96 1009.80 1008.70 1007.76 1007.09 1007.00 1007.06 1007.50 1008.73 1007.90 1005.40 1002.83 1001.64 998.06 995.63 995.83 995.42 994.96 994.35 996.03 995.78 995.56 995.55 995.21 994.70 994.26 993.24 992.38 991.40 991.36 991.61 992.26 993.82 995.11
1017.81 1016.41 1016.72 1017.15 1017.13 1017.15 1016.05 1014.40 1013.34 1012.60 1012.09 1011.25 1010.10 1009.41 1008.82 1007.91 1007.62 1007.65 1008.25 1008.51 1009.05 1007.02 1005.41 1002.70 999.99 995.89 994.99 993.70 992.80 993.56 993.99 994.87 995.26 995.30 994.70 994.40 993.47 992.81 992.20 991.61 991.17 991.40 992.42 993.91 994.98
1017.71 1015.91 1016.65 1016.69 1016.26 1016.31 1015.71 1014.97 1014.11 1012.56 1011.92 1011.22 1010.49 1009.87 1009.13 1008.67 1007.95 1007.61 1008.07 1008.38 1009.09 1007.92 1005.91 1003.11 1000.90 997.02 993.85 993.95 993.52 993.35 993.33 994.41 994.25 994.82 995.01 994.53 993.58 992.22 992.13 991.90 992.04 991.62 992.86 993.99 994.90
1018.10 1017.14 1016.66 1016.46 1016.31 1016.40 1015.92 1014.75 1013.52 1012.84 1011.86 1011.25 1010.51 1009.98 1009.61 1008.92 1008.39 1008.03 1007.91 1008.35 1009.36 1008.63 1007.27 1004.82 1001.31 997.41 994.38 994.20 993.58 992.52 993.36 993.88 994.37 994.08 994.37 993.99 992.97 991.87 992.16 991.94 992.29 992.37 993.29 994.18 994.93
1018.12 1016.63 1016.04 1016.46 1016.81 1016.75 1015.80 1014.38 1013.35 1012.92 1011.95 1011.70 1010.76 1010.34 1009.59 1008.86 1008.69 1008.87 1009.17 1009.17 1009.22 1008.74 1007.77 1005.91 1001.94 998.01 994.40 992.84 992.77 992.76 992.94 993.36 994.17 993.82 993.51 993.07 992.53 992.13 991.76 992.07 992.52 993.17 993.78 994.31 995.00
1018.54 1017.47 1017.90 1016.78 1016.58 1016.65 1016.04 1015.27 1014.23 1013.33 1012.26 1011.49 1010.62 1010.22 1009.70 1009.11 1008.39 1009.22 1009.40 1009.39 1008.59 1008.05 1006.75 1004.56 1001.43 998.86 996.70 995.08 993.66 992.66 992.90 993.01 993.56 993.54 993.22 993.01 992.76 992.21 991.75 992.40 992.92 993.38 993.90 994.44 995.02
1019.34 1019.28 1018.51 1017.62 1016.92 1016.51 1015.61 1014.74 1014.23 1013.71 1013.61 1011.82 1010.89 1010.20 1009.79 1008.97 1008.38 1008.04 1008.18 1007.99 1007.79 1006.82 1005.99 1004.33 1000.90 999.03 997.51 996.08 994.51 992.82 993.11 993.35 993.65 993.87 993.71 993.54 992.68 992.56 992.77 993.27 993.58 994.07 994.22 994.42 994.91
1019.98 1019.45 1019.37 1017.66 1016.83 1016.61 1015.75 1015.30 1014.78 1014.40 1013.41 1012.07 1011.34 1010.51 1009.48 1008.49 1008.28 1007.90 1007.60 1007.62 1007.57 1006.97 1006.27 1005.11 1002.60 999.46 997.30 995.94 995.06 993.75 993.50 993.85 994.12 994.42 994.51 993.89 993.80 994.77 994.54 994.70 994.76 994.76 994.73 994.52 994.54
Thickness
5620 5623 5626 5628 5631 5633 5638 5640 5645 5646 5652 5657 5663 5668 5675 5683 5693 5709 5717 5730 5728 5730 5729 5734 5737 5739 5742 5743 5754 5757 5736 5742 5761 5769 5777 5796 5782 5788 5793 5786 5795 5796 5793 5797 5797
5613 5614 5615 5618 5620 5625 5628 5632 5635 5636 5642 5647 5651 5656 5662 5671 5684 5702 5723 5724 5721 5723 5727 5726 5727 5733 5729 5739 5742 5736 5740 5753 5782 5784 5778 5786 5781 5783 5771 5778 5787 5791 5803 5800 5794
5605 5608 5611 5613 5615 5617 5619 5622 5625 5627 5633 5637 5642 5646 5652 5659 5681 5716 5717 5720 5720 5719 5727 5729 5731 5726 5723 5737 5738 5744 5743 5772 5777 5783 5784 5772 5770 5783 5774 5766 5783 5783 5789 5794 5793
5598 5599 5601 5603 5606 5609 5611 5614 5614 5618 5622 5624 5628 5633 5642 5653 5674 5706 5705 5709 5719 5725 5716 5719 5717 5713 5715 5721 5737 5727 5757 5762 5772 5783 5772 5756 5770 5765 5776 5775 5789 5789 5789 5787 5786
5589 5591 5592 5594 5596 5598 5601 5604 5608 5611 5612 5614 5615 5619 5632 5648 5673 5696 5694 5699 5708 5712 5712 5713 5710 5714 5710 5723 5727 5736 5740 5756 5762 5760 5762 5759 5756 5760 5772 5783 5788 5783 5785 5785 5784
5580 5581 5582 5584 5587 5589 5592 5595 5598 5601 5604 5605 5606 5608 5621 5638 5672 5676 5677 5685 5692 5699 5705 5705 5706 5715 5717 5721 5722 5739 5739 5738 5740 5750 5752 5744 5750 5760 5775 5778 5781 5779 5781 5785 5784
5570 5571 5572 5574 5576 5578 5581 5583 5586 5589 5593 5595 5597 5600 5613 5637 5657 5661 5665 5668 5674 5682 5693 5703 5707 5701 5715 5706 5728 5726 5715 5725 5729 5737 5739 5743 5743 5750 5775 5772 5771 5776 5779 5781 5783
5561 5561 5562 5563 5565 5566 5569 5572 5576 5579 5583 5586 5585 5588 5616 5639 5643 5648 5653 5658 5662 5663 5672 5687 5694 5694 5699 5709 5708 5706 5712 5705 5726 5728 5732 5731 5739 5767 5780 5770 5770 5772 5776 5777 5780
5551 5550 5549 5550 5551 5553 5556 5560 5565 5568 5571 5572 5574 5579 5611 5623 5624 5632 5634 5640 5651 5657 5662 5669 5673 5683 5686 5682 5682 5702 5695 5705 5717 5740 5733 5726 5737 5759 5770 5764 5758 5764 5770 5775 5776
5540 5539 5537 5537 5537 5538 5540 5548 5553 5553 5556 5559 5564 5568 5594 5606 5612 5619 5624 5629 5632 5645 5648 5655 5661 5666 5679 5688 5691 5691 5694 5701 5713 5739 5732 5717 5728 5743 5755 5756 5748 5756 5763 5768 5772
5527 5525 5523 5522 5521 5520 5524 5538 5546 5551 5546 5558 5567 5572 5585 5590 5599 5604 5609 5615 5621 5626 5642 5657 5644 5672 5712 5696 5701 5698 5704 5708 5722 5736 5719 5709 5718 5738 5748 5744 5742 5748 5755 5764 5771
5513 5509 5505 5501 5499 5498 5500 5507 5504 5502 5524 5539 5544 5550 5559 5561 5571 5580 5587 5591 5609 5617 5630 5636 5652 5724 5699 5692 5689 5690 5695 5704 5716 5721 5708 5707 5706 5724 5732 5736 5742 5748 5755 5765 5771
5494 5488 5483 5478 5477 5477 5479 5477 5475 5475 5491 5531 5533 5537 5540 5544 5554 5568 5573 5582 5595 5605 5626 5642 5717 5688 5684 5686 5685 5690 5687 5693 5690 5705 5700 5692 5687 5704 5728 5745 5754 5757 5761 5765 5770
5474 5468 5463 5460 5462 5463 5467 5458 5456 5457 5467 5517 5516 5520 5524 5522 5528 5550 5558 5564 5581 5597 5611 5630 5679 5678 5676 5686 5691 5683 5694 5686 5684 5676 5671 5694 5671 5710 5726 5734 5740 5748 5756 5768 5774
5458 5453 5447 5442 5448 5451 5449 5445 5444 5445 5481 5499 5502 5512 5517 5514 5521 5536 5547 5546 5565 5583 5594 5651 5652 5661 5674 5696 5690 5689 5689 5684 5681 5672 5668 5679 5670 5708 5727 5727 5740 5748 5761 5771 5779
5444 5440 5437 5443 5432 5435 5433 5431 5434 5444 5479 5494 5498 5495 5501 5509 5514 5524 5527 5534 5547 5552 5585 5626 5655 5661 5688 5684 5691 5691 5677 5678 5678 5674 5656 5686 5685 5705 5721 5735 5744 5758 5766 5775 5777
5436 5435 5431 5431 5431 5424 5421 5427 5437 5456 5483 5484 5476 5482 5488 5498 5504 5508 5515 5523 5529 5533 5559 5600 5622 5650 5672 5669 5681 5676 5666 5656 5649 5655 5662 5702 5690 5716 5736 5742 5749 5756 5762 5768 5764
5432 5431 5429 5428 5419 5412 5412 5420 5431 5467 5464 5469 5465 5469 5478 5494 5498 5492 5508 5519 5539 5540 5574 5575 5593 5634 5667 5676 5677 5676 5675 5677 5652 5663 5690 5708 5687 5718 5740 5755 5764 5767 5767 5769 5759
5431 5435 5434 5422 5414 5407 5408 5427 5459 5458 5452 5450 5457 5469 5487 5490 5486 5488 5501 5494 5512 5541 5549 5580 5605 5643 5657 5672 5683 5674 5678 5704 5692 5690 5683 5710 5718 5732 5745 5755 5758 5762 5764 5762 5756
5435 5436 5434 5418 5410 5403 5401 5425 5444 5446 5446 5450 5453 5465 5469 5478 5479 5482 5482 5455 5468 5509 5548 5559 5589 5635 5647 5666 5679 5688 5695 5674 5685 5657 5665 5693 5699 5708 5732 5750 5759 5761 5763 5756 5752
5438 5444 5430 5416 5412 5412 5420 5436 5441 5443 5442 5445 5452 5455 5459 5468 5474 5475 5469 5475 5453 5490 5516 5551 5567 5618 5635 5648 5672 5678 5678 5684 5688 5687 5676 5676 5699 5735 5736 5749 5757 5764 5763 5753 5751
5440 5451 5430 5422 5425 5418 5419 5424 5427 5440 5442 5443 5449 5451 5456 5461 5470 5476 5471 5474 5465 5479 5503 5548 5559 5586 5633 5662 5678 5686 5685 5680 5674 5670 5688 5691 5694 5747 5746 5752 5752 5763 5758 5755 5754
5438 5436 5433 5427 5413 5408 5415 5426 5435 5434 5440 5441 5446 5452 5454 5458 5462 5471 5479 5476 5458 5462 5483 5521 5558 5592 5624 5639 5659 5673 5678 5684 5689 5695 5680 5682 5698 5749 5746 5750 5749 5753 5753 5752 5751
5442 5445 5443 5430 5420 5411 5415 5430 5434 5435 5439 5436 5443 5445 5452 5457 5461 5453 5449 5456 5455 5458 5467 5499 5550 5588 5629 5645 5665 5657 5669 5680 5675 5673 5690 5699 5710 5729 5742 5742 5746 5746 5748 5750 5747
5440 5443 5426 5432 5426 5417 5417 5415 5415 5418 5436 5440 5443 5444 5447 5449 5461 5431 5438 5442 5464 5466 5483 5516 5555 5586 5602 5621 5643 5661 5663 5672 5670 5692 5687 5703 5706 5725 5741 5740 5742 5747 5748 5746 5744
5432 5420 5423 5427 5428 5421 5424 5426 5421 5420 5408 5430 5439 5443 5445 5449 5457 5458 5463 5468 5467 5484 5492 5519 5567 5585 5589 5612 5631 5651 5663 5673 5683 5689 5695 5703 5712 5738 5739 5739 5737 5737 5742 5743 5743
5426 5423 5410 5429 5428 5417 5420 5417 5410 5408 5415 5432 5432 5435 5442 5453 5454 5459 5468 5470 5473 5480 5487 5499 5533 5573 5589 5616 5625 5642 5661 5667 5682 5688 5692 5693 5709 5703 5711 5718 5723 5729 5735 5741 5747